{"data":{"norad_id":56523,"epoch":"2026-09-20T12:48:12.819744Z","epoch_age_seconds":111887,"freshness":"FRESH","line1":"1 56523U 23065W   26263.53348171 -.00000317  00000+0 -19855-5 0  9993","line2":"2 56523  43.0039 192.5233 0001572 269.3612  90.7060 15.27574715186394","mean_motion":15.27574715,"eccentricity":0.0001572,"inclination_deg":43.0039,"raan_deg":192.5233,"arg_perigee_deg":269.3612,"mean_anomaly_deg":90.706,"bstar":-1.9855e-6,"rev_number":18639,"period_min":94.267074851393,"perigee_km":481.98634033452,"apogee_km":484.14350221857,"semimajor_km":6861.2019212765,"source":"CELESTRAK","updated_at":"2026-09-21T09:00:33.473059Z"}}